Regional Weather Roundup
Issued by NWS

Home | Current Version | Previous Version | Graphics & Text | Print | Product List | Glossary On
Versions: 1 2 3 4 5 6 7 8 9 10 11 12 13 14 15 16 17 18 19 20 21 22 23 24 25 26 27 28 29 30 31 32 33 34 35 36 37 38 39 40 41 42 43 44 45 46 47 48 49 50
000
ASUS43 KOAX 281810
RWRNE

WEATHER ROUNDUP FOR NEBRASKA
NATIONAL WEATHER SERVICE OMAHA NE
100 PM CDT FRI APR 28 2017

NOTES: SATELLITE DATA IS BEING USED TO AUGMENT CLOUD COVER ABOVE
       12000 FEET.
       "FAIR" INDICATES FEW OR NO CLOUDS BELOW 12,000 FEET WITH NO
       SIGNIFICANT WEATHER AND/OR OBSTRUCTIONS TO VISIBILITY.

  * THESE STATIONS DO NOT REPORT WEATHER SUCH AS RAIN...SNOW OR FOG.

NEZ001>004-019>022-054>056-281900-
NEBRASKA PANHANDLE

CITY           SKY/WX    TMP DP  RH WIND       PRES   REMARKS
SCOTTSBLUFF    SNOW      34  31  88 E18       29.83R VSB 1/2 WCI  23
6HR MIN TEMP:  33; 6HR MAX TEMP:  34; 6HR PCP:  0.32;

ALLIANCE       LGT SNOW  33  31  92 E20       29.84R VSB 3/4 WCI  21
6HR MIN TEMP:  33; 6HR MAX TEMP:  33; 6HR PCP:  0.20;

CHADRON        MIX PCPN  37  33  85 E15       29.91R WCI  28
6HR MIN TEMP:  33; 6HR MAX TEMP:  37; 6HR PCP:  0.19;

KIMBALL        LGT SNOW  35  33  92 E21       29.76R WCI  24
SIDNEY         FLURRIES  35  33  92 E21       29.78R WCI  24
6HR MIN TEMP:  32; 6HR MAX TEMP:  36; 6HR PCP:  0.06;

$$

NEZ057>060-069>072-079>082-281900-
SOUTHWEST NEBRASKA

CITY           SKY/WX    TMP DP  RH WIND       PRES   REMARKS
NORTH PLATTE   LGT RAIN  37  35  92 NE18G26   29.82R FOG     WCI  27
6HR MIN TEMP:  35; 6HR MAX TEMP:  39; 6HR PCP:  0.28;

IMPERIAL       CLOUDY    38  34  85 NE21G26   29.79R WCI  28
6HR MIN TEMP:  35; 6HR MAX TEMP:  39; 6HR PCP:  0.05;

LEXINGTON      LGT SNOW  35  33  93 NE20G26   29.81R WCI  24
MCCOOK         CLOUDY    40  38  93 NE22      29.77S WCI  30
6HR MIN TEMP:  39; 6HR MAX TEMP:  44; 6HR PCP:  0.13;

OGALLALA       LGT SNOW  36  35  94 E17G24    29.82R WCI  26
$$

NEZ005>010-023>029-035>040-094-281900-
NORTH CENTRAL NEBRASKA

CITY           SKY/WX    TMP DP  RH WIND       PRES   REMARKS
VALENTINE      CLOUDY    43  26  51 E21       29.92R
6HR MIN TEMP:  39; 6HR MAX TEMP:  43;

AINSWORTH      CLOUDY    41  31  69 NE15G23   29.91R
BROKEN BOW     LGT SNOW  34  32  92 NE20G26   29.84R FOG     WCI  23
6HR MIN TEMP:  34; 6HR MAX TEMP:  39; 6HR PCP:  0.25;

O`NEILL        CLOUDY    40  29  65 NE12G17   29.91R WCI  33
ORD            LGT RAIN  35  32  88 NE17      29.86R WCI  25
6HR MIN TEMP:  33; 6HR MAX TEMP:  39; 6HR PCP:  0.32;

THEDFORD       LGT SNOW  35  34  96 NE12G17   29.89R WCI  27
$$

NEZ041-046>049-061>064-073>077-083>087-281900-
SOUTH CENTRAL NEBRASKA

CITY           SKY/WX    TMP DP  RH WIND       PRES   REMARKS
GRAND ISLAND   LGT RAIN  37  37 100 NE23G31   29.80R WCI  26
6HR MIN TEMP:  36; 6HR MAX TEMP:  41; 6HR PCP:  0.29;

AURORA         RAIN      36  35  97 NE17G25   29.79R WCI  26
HASTINGS       LGT RAIN  38  36  92 NE20      29.78R FOG     WCI  28
6HR MIN TEMP:  38; 6HR MAX TEMP:  45; 6HR PCP:  0.15;

HEBRON         LGT RAIN  42  41  97 E14G23    29.74R
HOLDREGE       CLOUDY    38  36  93 NE20G26   29.78R FOG     WCI  27
KEARNEY *      CLOUDY    34  30  86 NE14      29.81R WCI  24
YORK           LGT SNOW  37  37 100 NE20G25   29.79R WCI  27
$$

NEZ011>018-030>034-042>045-281900-
NORTHEAST NEBRASKA

CITY           SKY/WX    TMP DP  RH WIND       PRES   REMARKS
NORFOLK        LGT SNOW  35  32  88 NE13      29.87R FOG     WCI  26
6HR MIN TEMP:  32; 6HR MAX TEMP:  35; 6HR PCP:  0.17;

ALBION         LGT SNOW  37  34  89 NE18G25   29.85F WCI  27
BLAIR          CLOUDY    39  37  91 NE17G31   29.80R WCI  30
FREMONT        CLOUDY    39  38  95 NE9G21    29.83S WCI  33
TEKAMAH        CLOUDY    39  35  86 NE21G28   29.85S WCI  29
6HR MIN TEMP:  37; 6HR MAX TEMP:  39; 6HR PCP:  0.24;

WAYNE          LGT RAIN  39  34  81 NE16G23   29.89R WCI  30
$$

NEZ050>053-065>068-078-088>093-281900-
SOUTHEAST NEBRASKA

CITY           SKY/WX    TMP DP  RH WIND       PRES   REMARKS
LINCOLN        LGT RAIN  41  39  93 NE21      29.80S FOG
6HR MIN TEMP:  40; 6HR MAX TEMP:  43; 6HR PCP:  0.19;

OMAHA EPPLEY   CLOUDY    41  36  82 NE14G22   29.82F
6HR MIN TEMP:  38; 6HR MAX TEMP:  41; 6HR PCP:  0.36;

BEATRICE       CLOUDY    41  40  95 NE16G24   29.74R FOG
FALLS CITY     CLOUDY    44  42  93 NE10G17   29.73R
6HR MIN TEMP:  44; 6HR MAX TEMP:  46; 6HR PCP:  0.43;

NEBRASKA CITY  CLOUDY    39  39 100 NE18G26   29.77R WCI  30
PLATTSMOUTH    LGT RAIN  38  35  89 NE20G28   29.79S WCI  28
$$

NEZ044-045-051>053-067-281900-
OMAHA AREA

CITY           SKY/WX    TMP DP  RH WIND       PRES   REMARKS
OMAHA EPPLEY   CLOUDY    41  36  82 NE14G22   29.82F
6HR MIN TEMP:  38; 6HR MAX TEMP:  41; 6HR PCP:  0.36;

BLAIR          CLOUDY    39  37  91 NE17G31   29.80R WCI  30
FREMONT        CLOUDY    39  38  95 NE9G21    29.83S WCI  33
MILLARD        DRIZZLE   42  39  91 NE8       29.80S
OFFUTT AFB     LGT RAIN  40  37  90 NE17G28   29.79S FOG     WCI  31
PLATTSMOUTH    LGT RAIN  38  35  89 NE20G28   29.79S WCI  28
WAHOO          RAIN      39  37  93 NE20G29   29.80S WCI  30
$$



USA.gov is the U.S. government's official web portal to all federal, state and local government web resources and services.